User: anonymous   Login
Location: Cella
(44.7333°N, 10.5667°E)
Time: 17:10:56
(UTC+00:00)
Language:

Resurs 1-3 - Orbit

View from above orbital plane
View from above orbital plane
View from above satellite
View from above satellite

Ground track
Ground track

The orbit data is extracted from the following two-line orbital elements,

1 23342U 94074A   21129.16036213  .00000102  00000-0  20539-4 0  9991
2 23342  97.8811 178.7791 0002202  76.8573 283.2884 14.79414166428015
Epoch (UTC): 09 May 2021 03:50:55
Eccentricity: 0.0002202
inclination: 97.8811°
perigee height: 629 km
apogee height: 633 km
right ascension of ascending node: 178.7791°
argument of perigee: 76.8573°
revolutions per day: 14.79414166
mean anomaly at epoch: 283.2884°
orbit number at epoch: 42801

The dashed part of the orbit path shows where the satellite is in the earth's shadow,  

DLR